Wind_Speed
11 11 11 12 12 12 13 13 14 15 15 16 17 17 18 19 20 20 21 22 23 23 24 24 24 25 25 26 26 27 27 27 27 27 26 25 25 25 25 25 26 26 26
11 12 12 13 13 14 14 15 16 17 18 18 19 20 21 22 22 23 24 24 25 25 26 26 26 27 27 28 28 29 29 30 30 30 30 29 28 28 28 28 28 28 28
11 12 14 14 15 16 17 18 18 19 20 21 22 22 23 24 24 25 26 26 27 27 28 28 29 29 29 30 30 31 32 32 32 32 32 32 32 32 31 31 31 31 30
13 14 16 17 18 18 19 20 21 22 23 24 24 25 25 26 27 27 28 29 29 30 30 31 31 31 32 33 33 34 34 34 34 34 34 35 35 35 34 34 33 33 33
16 17 18 18 19 20 22 23 23 24 25 26 26 27 27 28 29 30 31 31 31 32 32 33 34 34 35 36 36 36 37 37 38 38 38 37 37 38 38 37 36 36 35
19 21 21 22 23 23 24 25 26 27 27 28 28 29 30 30 31 32 33 33 34 34 35 35 36 36 37 38 39 40 40 40 40 41 41 40 40 41 41 40 39 39 37
23 24 25 26 27 28 28 29 30 31 31 31 31 32 32 33 34 35 36 37 37 37 38 39 39 40 41 41 42 43 43 44 44 44 44 43 44 44 44 43 43 42 41
27 28 28 29 30 30 31 33 34 35 35 35 34 35 36 37 37 37 39 39 40 40 41 42 43 43 44 45 46 46 46 47 47 47 47 47 47 47 48 47 46 45 44
31 31 32 32 32 32 33 35 36 37 38 37 37 38 39 39 40 41 41 42 43 43 43 44 45 46 47 48 49 50 49 49 49 50 51 51 50 50 50 50 49 49 47
33 34 35 35 35 35 36 37 37 37 38 38 39 40 40 41 41 42 44 45 45 46 46 47 48 49 49 51 52 52 53 52 53 54 54 54 53 52 52 53 53 52 51
33 34 35 36 37 37 36 37 37 39 39 40 40 41 42 43 43 43 45 46 47 48 49 50 52 53 54 55 56 57 57 57 58 58 58 58 58 57 56 56 55 55 55
33 34 36 36 36 36 36 37 38 38 39 40 41 42 43 44 45 46 47 49 50 52 53 55 57 58 59 60 61 61 62 63 63 62 62 62 61 61 60 59 58 58 57
33 34 35 36 36 36 36 36 37 38 39 40 42 43 45 47 48 50 51 53 55 56 58 59 61 62 63 64 65 65 66 66 66 66 66 65 65 64 64 62 61 60 59
34 34 35 35 35 36 37 38 39 40 41 42 44 45 47 49 52 53 55 57 59 61 62 63 64 65 66 66 67 67 68 68 68 68 68 67 66 66 65 64 63 62 61
35 35 35 36 37 37 38 39 41 42 43 45 47 49 51 52 54 57 59 61 62 64 65 65 66 66 66 67 67 67 67 67 66 66 65 65 64 63 61 61 61 60 60
37 37 37 38 39 40 41 42 43 45 47 49 51 53 55 56 58 59 61 62 63 64 64 64 63 64 64 63 63 62 62 63 62 62 60 59 59 58 57 57 57 57 57
38 39 40 41 42 43 44 46 47 48 51 52 54 56 57 58 59 60 61 61 61 61 61 60 60 59 58 57 58 58 58 57 57 56 56 55 54 54 54 54 54 54 54
40 42 43 44 45 46 48 49 51 52 54 56 57 58 59 59 59 59 59 58 57 57 56 55 54 53 53 52 52 52 51 50 49 49 48 48 48 48 48 48 48 49 49
43 45 46 47 48 49 50 52 53 55 56 57 58 58 58 57 57 57 55 54 53 51 51 50 49 49 48 47 46 46 45 44 43 42 41 41 42 42 42 42 43 43 44
46 46 47 48 49 50 52 53 54 55 55 55 55 55 54 53 53 51 51 50 48 47 46 45 44 43 42 41 40 40 39 38 37 36 35 36 36 37 37 36 37 38 38
47 47 48 49 50 51 52 53 53 53 53 53 53 52 50 49 48 46 45 43 42 42 41 40 39 38 37 36 35 35 34 33 32 30 29 29 29 30 30 30 31 31 32
47 48 49 49 50 51 51 51 51 51 50 49 48 46 45 43 41 40 39 39 38 37 37 35 35 34 33 32 31 30 29 28 26 25 24 24 23 23 24 24 24 25 27
47 48 48 48 49 49 49 49 48 47 45 44 42 40 38 37 36 36 35 34 33 32 31 30 30 29 29 28 27 26 24 23 21 20 20 19 19 19 19 20 21 21 22
46 47 47 47 47 47 45 44 43 41 40 38 36 35 34 33 32 32 31 30 29 28 27 27 27 26 25 24 23 23 21 20 18 16 16 15 15 15 16 17 18 18 18
45 45 44 44 43 42 40 39 38 36 34 33 32 31 30 29 29 28 27 26 25 25 25 25 23 23 22 22 21 20 18 17 16 15 15 15 14 15 16 16 16 17 17
42 42 41 40 39 37 36 34 33 32 30 29 28 27 26 25 25 25 24 23 23 23 22 21 21 20 20 19 18 17 16 15 15 15 14 14 14 14 15 16 17 17 18
Wind_Direction
231 232 233 235 239 242 247 252 257 261 265 269 273 276 279 282 285 287 288 288 289 290 291 292 292 292 293 293 293 293 292 293 293 294 294 294 293 292 290 288 287 287 286
242 242 242 245 248 252 256 259 263 266 270 274 277 279 282 285 286 287 287 288 288 289 290 291 291 291 291 291 291 290 289 290 290 291 291 291 291 291 290 288 287 285 284
255 256 255 255 257 259 262 265 268 270 273 276 279 280 282 284 285 286 286 287 287 288 288 289 289 289 289 289 288 288 288 288 288 288 289 289 289 288 288 287 286 284 283
263 264 262 262 263 265 267 269 271 273 275 277 280 281 282 283 284 284 285 285 285 286 287 287 287 287 286 286 286 286 285 285 286 286 287 287 287 287 286 285 284 283 282
270 271 269 267 269 270 271 272 273 275 276 278 279 280 282 283 283 284 284 284 285 285 285 286 287 286 286 285 286 286 285 284 284 285 285 285 285 285 284 283 282 281 280
273 273 273 274 273 273 274 277 278 278 278 279 281 282 283 284 283 285 285 284 285 284 284 284 285 286 285 285 285 284 285 285 284 284 284 285 285 284 283 282 281 281 280
278 277 276 278 278 277 276 276 277 277 278 278 279 281 282 282 283 283 284 285 285 285 285 285 285 285 284 283 283 283 284 284 284 283 284 284 284 283 282 281 281 280 280
281 281 282 281 281 280 279 279 278 278 278 279 279 281 283 282 282 283 285 286 286 287 286 285 285 285 285 284 283 283 283 284 284 283 283 283 282 281 281 280 280 279 279
281 280 282 281 281 282 282 282 281 279 280 280 280 282 283 283 284 284 284 285 286 287 287 286 286 286 285 283 283 284 284 283 282 281 281 281 280 279 280 280 279 279 278
282 281 282 281 282 282 282 282 282 282 283 283 284 284 285 286 286 287 286 286 286 287 287 287 287 287 286 285 285 284 284 283 282 281 281 280 279 278 278 278 278 278 278
285 284 285 285 283 284 285 285 284 283 283 285 285 285 286 287 288 289 289 289 289 289 289 288 288 287 287 286 285 285 284 282 281 280 280 279 279 278 277 276 276 276 276
287 285 285 285 284 285 285 286 286 286 286 286 287 287 288 289 289 290 290 290 290 290 289 289 288 288 288 287 286 285 284 283 282 280 279 278 278 277 276 274 273 273 272
288 288 287 287 286 286 287 287 288 289 289 289 290 290 290 290 291 291 291 290 290 290 289 289 289 289 288 287 286 285 284 283 282 281 280 278 277 276 274 273 272 271 271
288 287 287 288 289 289 290 291 291 292 292 293 293 293 292 292 292 292 292 291 291 290 290 290 289 288 287 286 285 284 283 282 281 280 279 278 276 274 272 271 270 269 268
290 291 291 291 291 291 292 292 293 293 294 294 294 294 294 294 294 293 293 293 293 292 292 291 290 289 288 287 285 285 284 283 281 280 279 277 275 273 271 270 268 267 266
291 291 291 291 292 292 293 293 294 294 295 295 296 296 296 296 296 296 295 295 295 295 294 293 292 291 290 288 286 286 284 283 282 280 279 277 275 273 270 268 266 265 264
292 292 292 292 292 293 294 294 295 295 296 296 296 297 297 297 297 296 296 296 296 295 295 294 294 293 291 290 289 289 287 285 283 281 278 276 274 271 269 267 265 263 262
294 294 294 293 293 294 294 295 296 296 297 298 298 298 298 298 297 297 297 296 296 296 296 295 295 294 293 293 292 291 289 287 285 282 279 275 272 270 268 267 265 262 260
296 296 295 294 295 295 296 297 298 298 299 299 299 299 299 299 299 298 298 297 297 297 297 297 296 295 295 294 294 292 291 289 286 283 279 275 272 269 268 266 265 263 261
297 297 296 296 297 298 299 299 300 300 300 300 300 300 300 300 300 299 299 299 299 299 298 299 298 298 297 297 296 295 293 291 288 285 281 277 274 271 268 266 264 262 260
298 298 299 300 301 301 302 302 301 301 301 301 301 301 300 300 300 299 299 299 299 300 300 300 300 300 300 299 299 298 297 296 292 287 284 280 276 272 268 266 263 261 259
300 301 301 302 303 303 303 303 302 302 302 302 301 301 301 301 300 300 301 301 301 301 301 302 303 303 302 302 301 301 301 299 296 290 285 281 278 273 269 267 264 263 260
302 302 303 303 303 304 304 304 303 303 303 302 302 301 301 301 302 302 303 303 303 303 304 305 306 306 306 305 304 304 304 303 300 295 289 284 280 276 270 267 266 266 262
303 303 303 303 304 304 304 304 304 304 304 304 303 303 303 303 303 304 304 305 306 306 307 308 309 308 308 309 309 308 307 305 302 297 292 287 282 277 273 271 269 267 263
303 303 304 305 305 305 305 305 305 305 305 305 305 305 305 305 306 307 307 307 309 309 310 310 310 311 311 311 311 310 309 308 307 303 295 290 283 276 274 272 269 266 263
305 305 305 305 305 306 305 306 306 306 306 306 307 308 307 309 310 310 310 311 312 313 314 313 314 314 314 314 314 313 310 307 308 307 301 295 288 282 277 274 271 270 269
Height
5849 5851 5853 5855 5856 5858 5859 5860 5861 5862 5862 5863 5863 5863 5864 5863 5863 5863 5862 5862 5861 5860 5859 5858 5857 5856 5855 5854 5853 5852 5851 5849 5848 5847 5846 5845 5844 5843 5842 5841 5840 5839 5838
5848 5849 5851 5852 5853 5854 5855 5856 5857 5857 5858 5858 5858 5858 5858 5858 5858 5857 5856 5856 5855 5854 5853 5852 5851 5850 5849 5847 5846 5845 5844 5843 5842 5840 5839 5838 5837 5836 5835 5833 5833 5832 5831
5845 5847 5848 5849 5850 5851 5851 5852 5852 5852 5853 5853 5853 5853 5852 5852 5851 5850 5850 5849 5848 5847 5846 5845 5844 5842 5841 5840 5839 5837 5836 5835 5834 5833 5831 5830 5829 5828 5827 5826 5825 5824 5823
5841 5843 5844 5845 5845 5846 5846 5846 5846 5847 5847 5847 5846 5846 5845 5845 5844 5843 5842 5841 5840 5839 5838 5837 5836 5834 5833 5831 5830 5829 5827 5826 5825 5824 5823 5821 5820 5819 5818 5817 5816 5815 5814
5838 5839 5838 5838 5839 5840 5840 5840 5840 5840 5840 5839 5839 5838 5837 5837 5836 5835 5834 5833 5832 5831 5830 5828 5827 5825 5824 5822 5821 5819 5818 5817 5815 5814 5813 5812 5810 5809 5808 5807 5806 5805 5804
5834 5833 5833 5833 5834 5834 5834 5833 5833 5832 5832 5831 5831 5830 5829 5828 5827 5826 5825 5823 5822 5822 5820 5819 5817 5815 5814 5812 5810 5808 5807 5806 5805 5803 5802 5801 5800 5798 5796 5795 5794 5794 5794
5828 5827 5826 5826 5826 5826 5826 5825 5825 5824 5823 5823 5822 5821 5820 5819 5817 5816 5814 5813 5812 5811 5810 5808 5806 5804 5802 5801 5799 5797 5795 5794 5793 5791 5790 5789 5787 5785 5784 5783 5782 5781 5781
5822 5821 5820 5819 5819 5818 5816 5816 5816 5815 5814 5813 5812 5811 5810 5808 5806 5805 5803 5801 5800 5799 5798 5796 5794 5793 5790 5788 5786 5784 5783 5782 5780 5777 5776 5776 5774 5772 5770 5769 5768 5768 5768
5815 5814 5812 5811 5810 5809 5809 5808 5806 5805 5804 5803 5801 5800 5799 5797 5795 5793 5791 5789 5788 5787 5785 5783 5781 5779 5777 5774 5772 5770 5769 5768 5766 5763 5762 5761 5759 5758 5756 5754 5754 5753 5754
5806 5805 5804 5802 5801 5800 5799 5798 5796 5795 5793 5792 5790 5789 5787 5785 5783 5781 5779 5777 5775 5773 5771 5769 5766 5764 5762 5759 5757 5755 5753 5752 5749 5747 5745 5744 5743 5742 5741 5739 5738 5737 5737
5798 5796 5795 5793 5792 5790 5789 5787 5786 5784 5782 5780 5779 5777 5775 5772 5770 5769 5766 5764 5761 5759 5757 5754 5751 5748 5746 5743 5740 5738 5735 5733 5731 5729 5728 5726 5725 5725 5724 5722 5721 5720 5720
5789 5787 5785 5784 5782 5780 5779 5777 5775 5773 5771 5770 5767 5765 5762 5760 5758 5755 5753 5750 5747 5744 5741 5738 5735 5731 5728 5724 5721 5718 5715 5712 5710 5709 5707 5707 5706 5705 5704 5703 5702 5702 5702
5779 5778 5776 5774 5772 5770 5768 5767 5765 5763 5760 5758 5756 5753 5750 5747 5744 5741 5738 5735 5731 5728 5724 5721 5717 5712 5708 5705 5701 5696 5693 5690 5687 5686 5685 5684 5683 5682 5681 5681 5681 5681 5682
5770 5768 5767 5765 5762 5760 5758 5756 5753 5751 5748 5746 5743 5739 5736 5733 5729 5725 5721 5717 5713 5709 5706 5702 5697 5692 5687 5683 5679 5675 5671 5667 5664 5662 5660 5660 5658 5658 5658 5658 5659 5660 5661
5761 5759 5757 5754 5752 5750 5748 5745 5742 5739 5735 5732 5729 5725 5721 5717 5713 5708 5703 5699 5694 5689 5684 5680 5675 5670 5665 5660 5656 5652 5647 5643 5640 5638 5636 5635 5634 5634 5634 5635 5636 5637 5638
5751 5749 5746 5743 5741 5738 5735 5732 5728 5725 5722 5718 5714 5709 5705 5700 5695 5690 5684 5679 5673 5667 5662 5658 5653 5647 5642 5637 5633 5629 5624 5620 5617 5614 5612 5611 5611 5611 5612 5613 5613 5614 5617
5740 5737 5735 5732 5729 5725 5722 5719 5715 5711 5707 5702 5698 5693 5688 5683 5677 5671 5666 5660 5654 5647 5642 5637 5632 5626 5621 5616 5612 5607 5603 5599 5595 5592 5591 5590 5590 5590 5591 5592 5593 5594 5596
5729 5726 5723 5719 5716 5712 5708 5704 5700 5695 5691 5685 5680 5675 5670 5665 5659 5653 5648 5642 5636 5630 5624 5619 5613 5608 5603 5598 5593 5589 5584 5580 5577 5574 5572 5571 5570 5571 5572 5573 5575 5576 5579
5717 5713 5710 5706 5702 5698 5694 5689 5684 5679 5674 5669 5663 5658 5652 5646 5641 5635 5629 5624 5619 5614 5608 5602 5596 5591 5586 5582 5577 5572 5568 5564 5561 5557 5556 5555 5554 5555 5556 5557 5559 5560 5562
5704 5701 5697 5692 5688 5684 5679 5674 5669 5663 5658 5652 5647 5641 5636 5630 5624 5619 5613 5608 5603 5598 5593 5588 5582 5577 5572 5568 5563 5559 5555 5551 5547 5544 5542 5541 5541 5541 5542 5543 5545 5547 5549
5691 5687 5683 5678 5674 5669 5664 5658 5653 5648 5642 5637 5631 5625 5620 5615 5610 5605 5600 5595 5590 5585 5580 5575 5570 5565 5560 5556 5552 5547 5543 5540 5536 5534 5532 5531 5530 5530 5531 5532 5534 5535 5537
5678 5673 5669 5664 5659 5654 5649 5644 5638 5633 5627 5622 5616 5611 5606 5601 5597 5592 5588 5583 5578 5573 5568 5564 5559 5555 5550 5546 5542 5538 5534 5531 5528 5525 5524 5523 5522 5522 5523 5523 5525 5526 5527
5665 5660 5655 5650 5645 5640 5635 5629 5624 5619 5613 5608 5603 5599 5594 5590 5585 5581 5577 5572 5568 5563 5559 5555 5551 5547 5542 5538 5534 5531 5527 5524 5521 5519 5518 5517 5516 5516 5516 5517 5518 5519 5520
5652 5647 5642 5637 5632 5627 5621 5616 5611 5606 5601 5597 5592 5588 5584 5580 5576 5572 5568 5563 5559 5555 5551 5547 5544 5540 5536 5532 5528 5525 5522 5519 5516 5514 5513 5512 5512 5511 5512 5512 5513 5513 5514
5639 5634 5629 5624 5619 5614 5610 5605 5600 5596 5591 5587 5583 5579 5575 5571 5568 5564 5560 5556 5552 5549 5545 5541 5537 5534 5530 5526 5523 5520 5517 5514 5512 5510 5509 5508 5508 5508 5508 5508 5508 5508 5509
5627 5622 5618 5613 5608 5604 5599 5595 5591 5587 5583 5579 5575 5572 5568 5564 5561 5557 5553 5550 5546 5543 5539 5535 5532 5529 5525 5522 5519 5516 5513 5511 5509 5507 5506 5505 5504 5503 5503 5503 5503 5504 5504